Location: Culleoka
(33.1312°N, 96.4919°W)
Time: 13:03:15
(UTC+00:00)

Cosmos 1500 Rocket - Pass Details

Date: 06 July 2022
Orbit: 602 x 631 km, 82.5° (Epoch: 07 August)

Event Time Altitude Azimuth Distance (km) Brightness Sun altitude
Exits shadow 08:44:30 45° 108° (ESE) 851 4.3 -25.7°
Maximum altitude 08:44:52 47° 93° (E) 837 4.3 -25.7°
Drops below altitude 10° 08:49:09 10° 19° (NNE) 2,013 7.1 -25.2°
Sets 08:51:27 0° 14° (NNE) 2,926 8.1 -24.9°
